Wind_Speed
19 19 19 20 20 21 20 19 19 20 20 20 19 20 20 20 21 22 21 20 19 18 18 17 17 17 17 16 15 15 14 14 14 12 12 11 11 11 10 10 11 11 10 10 10 10 10 10 10
21 21 21 21 21 21 20 20 20 20 21 21 21 22 22 22 22 22 22 22 21 20 20 19 19 18 19 18 17 17 17 16 15 14 13 13 12 12 12 12 12 12 12 12 11 11 11 11 12
23 23 22 22 22 21 21 20 20 21 21 22 23 24 23 24 24 24 24 23 23 22 21 21 20 20 20 20 19 19 18 17 16 16 15 14 13 13 13 13 13 13 13 13 13 13 13 13 13
24 24 24 24 23 22 22 21 23 23 23 24 24 25 26 25 25 25 25 25 24 23 23 22 22 22 21 21 21 20 20 19 18 17 17 17 15 14 15 14 14 15 15 15 15 15 15 15 15
25 25 26 25 24 23 23 23 24 25 24 24 25 26 26 26 26 26 26 26 26 25 25 24 24 23 23 22 22 22 21 21 20 19 19 18 17 16 16 16 16 16 16 16 16 17 17 17 17
26 27 27 26 25 25 25 26 26 26 26 26 26 26 27 27 28 28 28 28 27 27 26 26 25 25 24 24 24 23 23 23 22 21 21 20 19 18 18 18 18 18 18 18 18 18 18 19 19
27 28 28 27 27 27 27 27 27 28 28 28 28 28 28 28 29 29 29 29 29 29 28 27 27 26 26 26 25 25 25 24 24 23 22 22 21 21 20 19 20 20 20 20 21 21 21 21 22
28 29 29 29 29 28 28 29 29 30 30 29 29 29 28 29 29 30 30 30 30 30 29 28 28 28 27 27 27 27 26 26 25 25 24 24 24 24 24 23 23 22 22 23 23 22 22 23 23
28 29 29 29 30 29 30 30 30 31 31 30 30 30 30 30 30 31 31 31 31 31 31 30 29 29 29 29 29 29 28 28 27 27 27 27 26 26 26 25 25 25 24 24 24 24 24 24 25
28 29 29 30 30 31 31 32 32 32 32 32 32 32 32 32 31 32 32 32 32 32 32 31 31 31 31 31 31 31 30 30 29 29 29 29 29 28 28 28 27 27 27 26 26 26 26 26 27
29 29 29 29 31 32 33 33 33 33 33 33 33 33 33 33 33 32 32 32 32 32 32 32 32 32 32 32 32 32 32 32 31 30 30 30 29 30 30 30 30 29 29 29 28 28 28 28 29
29 30 30 30 31 33 34 34 34 34 34 34 34 33 33 34 34 33 33 32 33 33 33 33 33 33 33 33 33 33 33 33 32 32 32 32 31 31 31 31 31 31 31 31 31 31 30 30 30
29 29 30 31 32 33 34 35 35 34 34 34 34 34 34 34 35 35 34 34 34 34 34 34 34 34 34 34 34 34 34 34 34 33 33 33 33 33 33 33 33 33 34 33 33 33 32 31 31
29 29 30 31 32 33 34 35 35 34 34 34 34 33 33 34 35 35 35 35 35 35 35 35 35 35 34 34 34 34 35 35 35 35 35 35 34 34 35 36 35 35 36 35 35 35 34 33 33
28 29 30 30 30 32 35 35 34 34 34 34 33 33 34 34 35 35 36 36 36 36 36 36 36 36 35 35 35 35 35 35 35 35 35 36 36 36 36 36 36 37 36 36 36 36 35 35 35
28 29 29 29 30 31 33 34 34 34 34 34 34 34 34 34 35 35 35 36 37 37 37 37 37 37 37 37 36 36 36 37 37 37 37 37 37 37 38 37 38 38 38 37 37 36 36 36 36
27 28 28 28 29 30 32 32 33 34 34 34 34 34 34 34 34 34 35 36 37 37 37 37 37 38 38 39 38 38 38 38 38 38 37 38 38 38 39 39 39 39 39 39 38 38 38 38 38
27 28 28 28 28 30 31 31 31 32 34 34 34 34 35 35 34 35 35 36 37 38 38 39 39 39 40 40 40 39 39 39 39 39 39 39 39 39 39 40 40 40 40 40 41 41 40 40 40
27 27 27 26 27 29 30 31 30 31 32 33 33 35 35 35 35 36 37 38 38 39 39 39 40 40 40 40 40 39 40 40 40 40 40 40 40 40 40 41 41 41 41 41 42 42 42 42 41
27 28 28 28 28 29 30 31 31 31 31 32 33 34 34 36 36 36 38 38 39 39 39 40 40 41 41 41 40 40 41 41 41 41 41 41 41 41 41 42 41 42 42 42 42 42 43 43 43
27 28 28 29 29 30 31 31 30 30 30 32 33 34 35 36 36 36 37 38 39 39 39 39 40 41 41 41 40 40 41 41 41 42 43 43 43 43 42 42 42 43 42 43 43 43 43 43 43
27 28 29 29 30 30 30 32 30 30 29 30 32 33 34 35 36 37 37 38 39 39 39 39 40 40 41 41 41 41 41 41 41 42 43 44 43 43 43 43 43 42 42 42 43 43 43 43 43
28 28 28 29 30 31 30 32 31 30 30 30 31 32 33 34 36 37 37 38 38 39 40 40 40 40 41 41 42 42 42 42 42 43 43 44 43 42 42 43 43 43 43 43 43 42 42 42 42
27 28 28 28 30 31 29 30 31 30 30 31 31 32 33 34 35 36 37 37 37 38 40 41 41 40 41 42 42 42 43 43 43 43 43 44 44 42 43 44 44 44 44 44 43 43 43 42 41
26 27 28 29 29 30 29 31 31 29 29 29 30 31 32 32 33 33 35 35 36 38 39 40 40 41 41 42 42 42 42 42 42 42 43 44 44 44 43 44 44 44 44 44 44 43 43 42 42
27 27 27 29 30 30 30 31 29 28 28 29 29 30 30 30 31 32 33 34 35 37 39 39 40 41 41 42 42 42 41 42 42 42 42 43 44 44 44 44 44 45 45 44 44 44 43 43 42
28 27 27 28 29 30 29 30 29 27 28 28 29 30 30 31 31 32 33 33 34 35 37 38 39 40 41 41 41 42 42 42 42 42 42 43 43 44 44 45 45 44 44 44 44 44 44 44 43
28 28 27 28 28 28 28 28 29 28 28 29 29 29 30 31 32 34 34 34 34 35 36 37 38 39 40 40 41 41 41 41 42 42 43 43 43 44 44 44 44 44 44 44 43 43 44 44 43
27 27 27 28 29 29 29 28 28 29 29 29 29 30 30 31 33 34 35 35 35 35 36 37 38 38 39 39 39 40 41 41 41 41 42 43 43 44 44 43 42 42 42 42 42 42 42 43 43
27 27 27 28 29 30 31 30 29 30 31 31 31 30 31 32 33 34 34 34 35 35 36 36 36 37 37 38 38 38 39 39 40 41 41 41 41 42 42 42 43 42 42 41 42 42 42 43 43
Wind_Direction
257 256 256 255 254 254 256 257 255 251 249 249 248 248 248 246 248 251 252 252 251 251 248 245 246 247 247 248 249 249 251 252 251 252 254 255 257 257 257 256 252 251 254 256 255 258 261 261 263
257 257 256 255 255 255 257 257 256 255 252 251 252 250 249 248 249 251 251 252 252 251 250 247 246 246 248 249 250 251 251 251 251 253 254 255 256 258 258 257 255 256 257 259 258 258 262 265 266
258 258 256 256 255 257 258 257 257 255 254 253 254 253 250 249 251 252 251 251 251 251 250 249 248 247 249 249 250 250 250 250 250 252 253 256 259 259 259 259 258 259 259 259 261 261 262 265 268
256 256 256 257 257 257 258 257 257 256 255 255 254 254 252 252 252 252 250 249 251 249 248 249 248 249 250 251 250 249 249 250 251 252 253 255 259 261 261 261 261 261 261 260 261 262 262 265 267
256 255 255 256 258 257 257 256 256 257 257 256 253 253 253 254 253 252 252 251 250 249 248 249 250 250 250 251 252 251 250 250 252 253 254 255 257 261 265 266 264 264 264 263 263 264 264 266 267
257 256 256 256 257 258 258 257 257 259 258 256 255 253 253 253 254 253 252 252 252 250 247 247 249 251 251 252 252 252 251 250 252 253 254 256 257 260 264 266 266 265 266 265 264 264 265 266 269
259 257 258 258 257 257 258 258 259 259 258 256 256 255 253 252 253 253 252 252 253 251 248 247 249 250 251 252 252 252 252 252 253 254 255 257 260 261 264 266 267 266 267 267 265 265 267 268 268
260 259 259 258 257 257 258 258 258 258 257 257 255 255 254 253 253 253 252 251 251 251 250 249 249 249 251 252 253 253 253 253 254 255 257 259 261 262 264 268 268 267 267 267 267 267 268 271 271
262 261 260 259 258 257 257 258 258 259 258 257 255 255 255 253 252 252 251 250 250 251 251 251 251 251 252 252 252 253 254 254 254 256 258 260 262 264 266 267 268 267 268 270 270 269 270 272 273
263 263 261 260 258 257 258 258 258 258 258 257 255 253 254 253 252 251 251 251 250 250 250 251 251 252 253 253 252 252 254 254 255 257 258 260 263 264 265 266 267 268 268 269 271 270 269 271 272
265 263 262 260 259 257 258 258 258 258 257 257 257 255 253 253 252 252 251 251 250 250 250 250 251 252 253 254 254 253 254 255 256 257 259 260 262 264 265 266 267 268 268 268 270 272 271 272 272
266 265 264 262 261 258 258 259 258 258 258 257 256 256 254 252 251 251 250 249 250 251 251 251 251 252 254 255 254 254 254 255 256 257 259 260 262 264 266 266 267 268 268 269 269 271 271 272 273
268 267 265 264 262 261 258 258 258 257 258 257 256 255 255 253 250 250 250 249 250 252 252 252 252 253 254 256 255 254 254 255 256 257 259 261 263 265 266 267 268 268 269 270 271 271 271 272 274
270 268 268 266 263 261 258 257 257 258 257 257 256 255 254 253 251 251 251 250 250 252 252 253 253 253 254 254 255 256 255 255 257 258 259 260 263 265 267 268 268 268 268 269 270 271 272 273 274
273 271 270 267 264 263 260 258 258 258 257 257 256 256 255 254 253 252 252 252 252 252 253 253 253 254 253 254 255 256 256 256 257 258 260 262 263 264 267 268 268 268 270 270 270 271 271 272 274
276 273 271 269 266 265 263 260 258 258 257 256 256 255 255 255 253 252 252 253 253 253 254 255 254 254 253 254 255 256 256 257 257 259 261 262 263 264 266 268 268 268 270 270 270 271 273 273 274
277 274 271 269 267 266 264 262 259 258 258 256 256 255 256 256 255 255 253 253 254 254 254 255 256 255 255 256 256 256 257 257 258 260 262 264 264 265 266 268 269 269 269 270 270 272 274 274 274
282 278 273 271 269 267 266 264 260 259 258 258 257 256 256 257 256 257 256 255 255 256 256 256 256 257 257 258 258 258 258 258 259 260 262 264 265 267 267 268 270 271 271 271 272 273 274 274 274
282 280 275 271 270 269 268 265 263 261 260 260 259 257 257 258 257 258 258 257 257 257 257 256 256 257 258 258 258 259 258 259 260 261 263 264 265 268 269 270 270 271 272 272 273 274 274 274 275
281 279 276 272 272 271 269 267 267 264 263 262 261 259 259 258 259 260 260 260 259 258 257 257 257 257 258 258 258 259 259 259 260 261 263 265 266 268 269 270 271 271 272 273 274 274 275 275 276
283 282 279 275 272 272 271 269 267 267 266 265 265 263 262 261 260 261 260 261 261 259 258 257 257 257 257 258 258 258 259 260 262 262 263 265 267 268 270 270 270 271 272 273 274 275 275 276 276
285 284 281 277 274 273 273 273 269 269 268 268 268 266 264 262 262 263 263 262 261 261 259 259 258 258 258 258 257 258 259 260 262 263 264 265 266 267 268 270 270 271 272 272 273 274 275 276 276
287 286 283 279 277 275 275 275 272 271 270 269 270 268 268 267 266 264 263 263 261 261 261 260 260 259 259 258 258 258 259 261 262 263 263 265 266 266 267 268 269 271 272 273 273 274 275 276 276
288 286 283 280 279 277 278 277 276 275 275 272 271 270 270 270 268 266 265 265 263 262 261 261 261 261 260 260 260 260 260 261 262 262 263 264 265 266 267 268 269 270 271 272 272 273 274 275 275
289 288 286 282 279 278 280 279 280 280 279 277 275 272 271 271 270 267 266 265 263 262 263 262 262 262 262 261 261 261 261 261 262 262 263 264 265 266 266 267 268 269 270 271 272 272 273 274 275
289 287 287 284 283 282 281 281 282 280 280 279 278 275 272 272 271 269 268 268 265 264 264 263 263 263 263 262 262 262 262 261 262 263 264 264 265 266 266 267 269 269 269 270 271 272 272 273 273
288 287 287 285 283 283 282 282 281 280 279 277 277 275 273 272 272 271 270 270 268 266 264 264 264 264 263 263 262 262 261 261 263 264 265 265 265 266 267 268 269 269 269 270 270 272 272 272 273
287 286 284 283 281 282 283 283 284 282 278 276 276 276 274 272 273 272 272 271 271 269 267 266 265 265 264 263 262 262 261 262 262 264 265 265 266 267 268 269 269 270 271 271 271 272 272 272 273
285 284 283 282 279 279 282 284 285 285 281 277 276 277 275 273 274 274 273 272 272 271 269 267 265 265 265 264 263 262 262 262 262 264 265 266 267 268 269 269 269 270 270 270 270 271 271 272 273
283 284 282 280 279 278 279 281 284 285 284 280 278 277 275 275 274 274 274 273 272 272 270 268 267 266 265 264 263 263 262 262 263 263 264 265 267 268 269 269 269 269 270 271 271 271 271 271 272
Height
5806 5806 5808 5809 5811 5811 5812 5814 5815 5816 5817 5818 5819 5820 5822 5824 5825 5828 5827 5827 5828 5830 5831 5832 5833 5834 5835 5836 5836 5837 5838 5838 5839 5839 5840 5840 5841 5841 5842 5842 5843 5843 5844 5844 5844 5844 5845 5845 5845
5802 5803 5804 5805 5806 5807 5809 5810 5811 5812 5813 5815 5815 5817 5818 5819 5821 5822 5822 5823 5825 5826 5828 5829 5830 5831 5832 5833 5834 5834 5835 5836 5836 5837 5837 5838 5838 5839 5839 5840 5840 5841 5841 5842 5842 5842 5843 5843 5843
5798 5799 5800 5801 5802 5803 5805 5806 5807 5807 5809 5811 5812 5813 5815 5816 5817 5818 5818 5820 5821 5823 5824 5825 5826 5828 5829 5830 5830 5831 5832 5833 5833 5834 5834 5835 5835 5836 5836 5837 5838 5838 5839 5839 5840 5840 5840 5841 5841
5793 5794 5796 5797 5798 5799 5800 5802 5802 5803 5805 5806 5807 5808 5810 5811 5813 5814 5814 5816 5817 5819 5820 5821 5823 5824 5825 5826 5827 5828 5829 5829 5830 5831 5831 5832 5832 5833 5834 5834 5835 5835 5836 5837 5837 5837 5837 5838 5838
5788 5789 5791 5792 5794 5795 5795 5797 5798 5799 5800 5802 5803 5804 5805 5806 5807 5808 5810 5811 5813 5814 5816 5817 5818 5819 5821 5822 5823 5824 5825 5826 5827 5828 5828 5829 5829 5830 5831 5831 5831 5832 5833 5833 5834 5834 5834 5834 5835
5783 5784 5785 5786 5788 5790 5790 5791 5792 5794 5795 5796 5798 5799 5800 5801 5802 5803 5804 5806 5808 5809 5811 5812 5813 5815 5816 5817 5818 5819 5820 5821 5823 5824 5824 5825 5826 5826 5827 5828 5828 5828 5829 5829 5830 5830 5830 5831 5831
5777 5778 5779 5781 5782 5784 5785 5785 5787 5788 5789 5791 5792 5793 5794 5796 5796 5797 5799 5801 5802 5804 5805 5807 5809 5810 5811 5812 5814 5815 5816 5817 5818 5819 5820 5821 5822 5822 5823 5823 5824 5824 5825 5825 5826 5826 5826 5826 5826
5770 5772 5773 5775 5776 5777 5778 5779 5780 5781 5783 5785 5786 5787 5789 5790 5791 5791 5793 5795 5797 5798 5800 5801 5803 5805 5806 5807 5808 5810 5811 5812 5813 5814 5815 5816 5817 5818 5819 5819 5819 5820 5820 5820 5821 5821 5822 5822 5822
5763 5766 5766 5767 5768 5770 5771 5772 5774 5775 5776 5778 5779 5780 5782 5783 5784 5786 5787 5789 5791 5792 5794 5796 5797 5799 5800 5801 5803 5804 5805 5806 5808 5809 5810 5811 5812 5813 5814 5814 5814 5815 5815 5816 5816 5816 5817 5817 5817
5757 5758 5760 5760 5761 5762 5763 5765 5766 5768 5769 5771 5772 5773 5775 5776 5778 5779 5781 5782 5784 5786 5788 5789 5791 5793 5794 5795 5796 5798 5799 5800 5802 5803 5805 5806 5807 5807 5808 5809 5809 5810 5810 5810 5811 5811 5811 5811 5811
5749 5750 5751 5752 5753 5754 5756 5757 5758 5760 5762 5763 5764 5766 5767 5769 5771 5773 5774 5775 5777 5779 5781 5783 5785 5786 5787 5789 5790 5791 5792 5794 5795 5797 5799 5800 5801 5801 5802 5803 5803 5804 5804 5804 5805 5805 5805 5805 5805
5742 5743 5744 5745 5745 5746 5748 5749 5751 5752 5754 5755 5756 5758 5760 5762 5764 5765 5767 5768 5770 5772 5774 5776 5778 5779 5781 5782 5783 5784 5786 5787 5789 5790 5792 5793 5794 5795 5795 5796 5797 5797 5798 5798 5798 5799 5799 5798 5798
5735 5736 5736 5737 5737 5738 5739 5741 5742 5744 5745 5746 5748 5750 5752 5754 5756 5758 5760 5761 5763 5765 5767 5769 5770 5772 5773 5774 5775 5777 5779 5780 5782 5783 5785 5786 5787 5788 5788 5789 5790 5790 5791 5791 5791 5791 5791 5791 5791
5728 5728 5728 5729 5729 5729 5731 5732 5734 5736 5737 5739 5741 5743 5745 5746 5749 5750 5752 5754 5756 5758 5760 5761 5763 5765 5766 5767 5768 5770 5771 5773 5775 5776 5778 5779 5779 5780 5780 5781 5782 5782 5783 5783 5783 5784 5784 5784 5784
5720 5721 5721 5721 5721 5721 5722 5724 5726 5728 5729 5731 5733 5735 5737 5739 5741 5743 5745 5746 5748 5750 5752 5754 5755 5757 5759 5760 5761 5762 5764 5766 5767 5769 5770 5771 5772 5772 5773 5773 5774 5774 5774 5775 5775 5776 5776 5776 5776
5713 5713 5713 5713 5713 5713 5715 5716 5719 5719 5721 5723 5725 5727 5729 5731 5733 5734 5737 5738 5740 5742 5744 5746 5747 5749 5751 5752 5753 5755 5756 5758 5759 5761 5762 5763 5764 5764 5765 5765 5766 5766 5766 5767 5767 5767 5768 5768 5768
5706 5705 5705 5706 5706 5705 5706 5708 5711 5711 5713 5715 5717 5719 5721 5723 5725 5726 5728 5730 5732 5734 5736 5738 5739 5741 5742 5744 5745 5747 5748 5750 5751 5752 5754 5755 5755 5756 5757 5757 5757 5758 5758 5758 5758 5759 5759 5759 5759
5700 5699 5698 5698 5698 5698 5698 5700 5703 5704 5705 5707 5709 5711 5712 5715 5717 5718 5720 5721 5724 5726 5728 5729 5731 5732 5734 5735 5737 5738 5740 5741 5742 5744 5745 5746 5747 5747 5748 5748 5748 5748 5749 5749 5749 5750 5750 5750 5749
5693 5692 5691 5692 5691 5691 5691 5693 5695 5697 5698 5700 5701 5703 5705 5707 5708 5710 5712 5713 5715 5717 5718 5720 5722 5723 5725 5726 5728 5730 5731 5732 5733 5734 5735 5736 5737 5738 5738 5739 5739 5739 5739 5739 5739 5740 5740 5740 5740
5686 5685 5685 5685 5684 5684 5684 5686 5688 5689 5690 5692 5693 5694 5696 5698 5699 5701 5703 5704 5705 5707 5709 5710 5712 5714 5715 5717 5718 5720 5721 5723 5724 5725 5726 5727 5728 5728 5729 5729 5729 5729 5730 5730 5730 5730 5730 5729 5729
5680 5679 5678 5677 5677 5676 5676 5678 5681 5682 5683 5684 5685 5686 5687 5689 5690 5692 5694 5695 5696 5697 5699 5701 5702 5704 5705 5707 5708 5710 5711 5713 5714 5715 5716 5717 5717 5718 5718 5719 5719 5719 5719 5719 5719 5719 5719 5719 5719
5674 5673 5671 5670 5670 5670 5670 5669 5674 5675 5676 5676 5677 5678 5679 5680 5681 5683 5684 5685 5686 5688 5689 5691 5692 5693 5695 5696 5698 5700 5701 5703 5704 5705 5706 5706 5707 5707 5708 5708 5709 5709 5709 5709 5709 5709 5709 5708 5708
5667 5666 5665 5664 5662 5662 5664 5662 5665 5667 5668 5669 5669 5670 5670 5671 5672 5673 5674 5675 5676 5677 5679 5681 5682 5683 5684 5686 5687 5689 5690 5692 5693 5694 5695 5696 5696 5697 5697 5698 5698 5698 5699 5699 5699 5698 5698 5698 5698
5661 5660 5659 5657 5656 5656 5658 5656 5657 5659 5660 5661 5661 5662 5662 5662 5663 5663 5664 5665 5666 5667 5669 5670 5672 5673 5674 5675 5677 5678 5679 5681 5682 5683 5684 5684 5685 5686 5686 5687 5687 5688 5688 5688 5688 5688 5687 5687 5687
5656 5655 5653 5650 5650 5650 5651 5649 5651 5652 5652 5652 5653 5653 5653 5653 5654 5654 5654 5655 5656 5657 5659 5660 5661 5662 5663 5664 5666 5667 5668 5669 5670 5671 5672 5673 5674 5674 5675 5676 5676 5676 5677 5677 5677 5676 5676 5676 5676
5650 5649 5648 5645 5644 5644 5644 5643 5645 5645 5645 5645 5645 5645 5645 5645 5645 5645 5645 5646 5647 5648 5648 5650 5651 5651 5652 5653 5654 5656 5657 5658 5659 5660 5661 5661 5662 5663 5663 5664 5664 5665 5665 5665 5665 5665 5665 5665 5665
5644 5643 5642 5640 5637 5637 5637 5637 5638 5638 5637 5637 5637 5637 5637 5637 5637 5637 5637 5637 5637 5638 5638 5639 5640 5641 5641 5642 5643 5644 5645 5646 5647 5648 5649 5650 5651 5651 5652 5652 5653 5653 5654 5654 5654 5654 5654 5654 5654
5638 5637 5635 5633 5631 5630 5630 5630 5631 5630 5630 5630 5629 5629 5628 5628 5628 5628 5628 5628 5628 5628 5628 5628 5629 5630 5630 5631 5632 5633 5634 5635 5636 5637 5638 5638 5639 5640 5640 5641 5642 5642 5642 5642 5642 5643 5643 5643 5643
5631 5630 5628 5626 5625 5624 5623 5626 5624 5623 5622 5621 5621 5621 5620 5620 5620 5619 5619 5619 5619 5618 5618 5618 5619 5619 5619 5620 5621 5622 5623 5624 5625 5626 5626 5627 5628 5628 5629 5629 5630 5630 5630 5630 5631 5631 5631 5631 5632
5624 5623 5622 5621 5619 5618 5616 5620 5618 5616 5614 5613 5613 5613 5612 5612 5611 5610 5610 5610 5609 5609 5609 5609 5609 5609 5609 5609 5610 5611 5612 5613 5614 5615 5615 5616 5617 5617 5618 5618 5618 5619 5619 5619 5619 5619 5619 5619 5620